Погода в Калуге

Украина / Николаевская область     47°21′44″N   32°56′49″E
темп.,
°C
ветер,
м/с
пор.,
м/с
влажн.,
%
обл.,
%
осадки,
мм/ч
давл.,
гПа
погр.,
м
18 апреля, вс
вс1800:00+6сз1154100 0.0 102010
03:00+6зюз115396 0.0 101910
06:00+6сз115897 0.0 101910
09:00+10в004999 0.0 1018296
12:00+14юз124293 0.0 10181424
15:00+15юз2237100 0.0 10171888
18:00+15зюз113873 0.0 10161665
21:00+12ю2250100 0.0 101711
19 апреля, пн
пн1900:00+11ю235997 0.0 101741
03:00+9юз227776 0.0 101716
06:00+9зюз1268100 0.0 101724
09:00+12всв2258100 0.0 1016439
12:00+15вюв324597 0.0 10151922
15:00+15всв334893 0.1 10141498
18:00+14в3562100 0.0 1013173
21:00+12св4864100 0.0 1013281
20 апреля, вт
вт2000:00+12всв51164100 0.0 1010413
03:00+10всв51171100 0.1 1007541
06:00+8св71391100 4.4 1004608
09:00+8св81494100 12.4 1001748
12:00+9ссв81293100 6.3 999737
15:00+9с81291100 8.0 998807
18:00+8ссз101388100 0.9 10001146
21:00+8сз81486100 1.7 10051285
21 апреля, ср
ср2100:00+8зсз71382100 0.1 1009557
03:00+5з51088100 0.1 1011283
06:00+4зюз4889100 0.0 1014174
09:00+9з5768100 0.0 1016498
12:00+12з5753100 0.0 10171355
15:00+14зюз465492 0.1 10171484
18:00+14зюз555771 0.2 10181219
21:00+9юз357611 0.2 101978
22 апреля, чт
чт2200:00+7ю34895 0.0 102076
03:00+7ю369332 0.0 1020102
06:00+8ююв4890100 0.0 1021214
09:00+11ю5779100 0.0 1022371
12:00+15ююз565763 0.8 10221488
15:00+14ююз5662100 2.3 10211187
18:00+14ююз566317 1.0 10211135
21:00+10ю46845 1.3 1022110